Location: Joplin, MO
(37.0842°N, 94.5133°W)
Time: 11:33:59
(UTC+02:00)

Vanguard 3 - Pass Details

Date: 01 April 2023
Orbit: 507 x 3246 km, 33.4° (Epoch: 01 June)

Event Time Altitude Azimuth Distance (km) Brightness Sun altitude
Rises 08:02:31 0° 221° (SW) 5,230 - -48.2°
Reaches altitude 10° 08:05:38 10° 215° (SW) 4,558 - -48.3°
Maximum altitude 08:18:41 48° 146° (SE) 3,420 - -48.4°
Exits shadow 08:26:04 35° 101° (ESE) 4,240 10.5 -48.4°
Drops below altitude 10° 08:36:46 10° 80° (E) 6,185 11.7 -48.3°
Sets 08:41:50 0° 76° (ENE) 7,172 12.2 -48.2°
